Location: Balsareny
(41.8670°N, 1.8830°E)
Time: 04:03:13
(UTC+01:00)

N. Korean satellite - Pass Details

Date: 10 December 2021
Orbit: 447 x 491 km, 97.3° (Epoch: 23 January)

Event Time Altitude Azimuth Distance (km) Brightness Sun altitude
Rises 06:06:02 0° 12° (NNE) 2,457 10.2 -22.1°
Enters shadow 06:07:50 - 13° (NNE) 1,681 9.3 -21.8°
Exits shadow 06:10:26 43° 19° (NNE) 647 7.1 -21.3°
Maximum altitude 06:11:27 83° 100° (E) 457 6.3 -21.1°
Drops below altitude 10° 06:14:50 10° 190° (S) 1,575 9.2 -20.5°
Sets 06:16:51 0° 192° (SSW) 2,447 10.2 -20.2°
